TimeEDT,TemperatureF,Dew PointF,Humidity,Sea Level PressureIn,VisibilityMPH,Wind Direction,Wind SpeedMPH,Gust SpeedMPH,PrecipitationIn,Events,Conditions,WindDirDegrees,DateUTC
12:52 AM,46.9,46.0,97,30.11,10.0,South,3.5,-,N/A,,Clear,170,2013-09-15 04:52:00
1:52 AM,46.9,45.0,93,30.12,10.0,Calm,Calm,-,N/A,,Clear,0,2013-09-15 05:52:00
2:52 AM,45.0,43.0,93,30.12,10.0,Calm,Calm,-,N/A,,Clear,0,2013-09-15 06:52:00
3:36 AM,44.6,42.8,93,30.10,10.0,Calm,Calm,-,N/A,,Scattered Clouds,0,2013-09-15 07:36:00
3:45 AM,44.6,42.8,93,30.10,10.0,Calm,Calm,-,N/A,,Mostly Cloudy,0,2013-09-15 07:45:00
3:52 AM,44.1,42.1,93,30.13,10.0,Calm,Calm,-,N/A,,Scattered Clouds,0,2013-09-15 07:52:00
4:39 AM,42.8,42.8,100,30.12,1.5,Calm,Calm,-,N/A,,Mostly Cloudy,0,2013-09-15 08:39:00
4:41 AM,42.8,42.8,100,30.12,0.8,Calm,Calm,-,N/A,,Mist,0,2013-09-15 08:41:00
4:52 AM,43.0,42.1,97,30.15,0.2,Calm,Calm,-,N/A,Fog,Fog,0,2013-09-15 08:52:00
5:03 AM,42.8,42.8,100,30.12,1.2,Calm,Calm,-,N/A,,Overcast,0,2013-09-15 09:03:00
5:07 AM,42.8,42.8,100,30.12,2.0,Calm,Calm,-,N/A,,Overcast,0,2013-09-15 09:07:00
5:16 AM,42.8,42.8,100,30.13,3.0,Calm,Calm,-,N/A,,Overcast,0,2013-09-15 09:16:00
5:52 AM,43.0,42.1,97,30.17,10.0,Calm,Calm,-,N/A,,Overcast,0,2013-09-15 09:52:00
6:22 AM,42.8,41.0,93,30.14,10.0,Calm,Calm,-,N/A,,Partly Cloudy,0,2013-09-15 10:22:00
6:52 AM,42.1,41.0,96,30.18,10.0,Calm,Calm,-,N/A,,Clear,0,2013-09-15 10:52:00
7:52 AM,46.0,45.0,96,30.18,10.0,Calm,Calm,-,N/A,,Clear,0,2013-09-15 11:52:00
8:52 AM,51.1,46.9,86,30.18,10.0,Calm,Calm,-,N/A,,Clear,0,2013-09-15 12:52:00
9:52 AM,55.9,43.0,62,30.20,10.0,West,4.6,-,N/A,,Clear,270,2013-09-15 13:52:00
10:52 AM,59.0,43.0,55,30.20,10.0,Variable,5.8,-,N/A,,Clear,0,2013-09-15 14:52:00
11:52 AM,61.0,43.0,52,30.18,10.0,Variable,6.9,-,N/A,,Clear,0,2013-09-15 15:52:00
12:52 PM,62.1,44.1,52,30.16,10.0,WSW,5.8,-,N/A,,Clear,250,2013-09-15 16:52:00
1:52 PM,63.0,44.1,50,30.15,10.0,WSW,5.8,-,N/A,,Clear,250,2013-09-15 17:52:00
2:52 PM,64.0,46.0,52,30.13,10.0,SW,4.6,-,N/A,,Clear,230,2013-09-15 18:52:00
3:52 PM,64.9,45.0,48,30.12,10.0,WSW,4.6,-,N/A,,Clear,240,2013-09-15 19:52:00
4:52 PM,64.9,46.9,52,30.11,10.0,Variable,5.8,-,N/A,,Clear,0,2013-09-15 20:52:00
5:52 PM,63.0,48.9,60,30.11,10.0,SSW,5.8,-,N/A,,Clear,200,2013-09-15 21:52:00
6:52 PM,60.1,50.0,69,30.10,10.0,SSW,4.6,-,N/A,,Clear,210,2013-09-15 22:52:00
7:52 PM,57.9,52.0,81,30.10,10.0,South,3.5,-,N/A,,Clear,180,2013-09-15 23:52:00
8:52 PM,57.0,51.1,81,30.11,10.0,SW,3.5,-,N/A,,Clear,220,2013-09-16 00:52:00
9:52 PM,55.9,51.1,84,30.11,10.0,SSW,3.5,-,N/A,,Clear,210,2013-09-16 01:52:00
10:52 PM,57.0,50.0,77,30.10,10.0,Calm,Calm,-,N/A,,Clear,0,2013-09-16 02:52:00
11:52 PM,55.0,50.0,83,30.08,10.0,SSW,5.8,-,N/A,,Clear,210,2013-09-16 03:52:00